Jacksonville, IL

3:54 AM CST on February 20, 2018 (GMT -0600)
Jacksonville Municipal

Weather History for KIJX - October, 2012

Change the Weather History Date:

Saturday, October 27, 2012

  Actual Average (KSPI) Record (KSPI)
Temperature  
Mean Temperature 40 °F -  
Max Temperature 49 °F 63 °F 84 °F (1927)
Min Temperature 32 °F 41 °F 23 °F (2013)
Degree Days  
Heating Degree Days 25    
Moisture  
Dew Point 31 °F    
Average Humidity 70    
Maximum Humidity 88    
Minimum Humidity 50    
Precipitation  
Precipitation 0.00 in - - ()
Sea Level Pressure  
Sea Level Pressure 30.30 in    
Wind  
Wind Speed 9 mph (North)    
Max Wind Speed 14 mph    
Max Gust Speed 16 mph    
Visibility 10 miles    
Events      
Averages and records for this station are not official NWS values.
T = Trace of Precipitation, MM = Missing Value Source: NWS Daily Summary

Daily Weather History Graph

Daily Weather History Graph

Search for Another Location

Airport or City:

Trip Planner

Search our weather history database for the weather conditions in past years. The results will help you decide how hot, cold, wet, or windy it might be!

Date:

Astronomy

Oct. 27, 2012 Rise Set
Actual Time 7:24 AM CDT 6:04 PM CDT
Civil Twilight 6:56 AM CDT 6:32 PM CDT
Nautical Twilight 6:25 AM CDT 7:03 PM CDT
Astronomical Twilight 5:53 AM CDT 7:35 PM CDT
Moon 4:50 PM CDT (10/27) 5:19 AM CDT (10/27)
Length of Visible Light 11h 35m
Length of Day
10h 39m
Waxing Gibbous, 96% of the Moon is Illuminated
Oct 27
Waxing Gibbous
Oct 29
Full
Nov 6
Last Quarter
Nov 13
New
Nov 20
First Quarter

Hourly Weather History & Observations

Time (CDT) Temp. Windchill Dew Point Humidity Pressure Visibility Wind Dir Wind Speed Gust Speed Precip Events Conditions
12:15 AM 40.3 °F 33.9 °F 31.6 °F 71% 30.34 in 10.0 mi North 10.4 mph - N/A   Clear
12:35 AM 39.6 °F 33.5 °F 31.6 °F 73% 30.34 in 10.0 mi North 9.2 mph - N/A   Clear
12:55 AM 38.7 °F 31.8 °F 31.5 °F 75% 30.34 in 10.0 mi North 10.4 mph - N/A   Clear
1:15 AM 38.3 °F 31.9 °F 31.6 °F 77% 30.33 in 10.0 mi North 9.2 mph - N/A   Clear
1:35 AM 38.1 °F 31.2 °F 31.1 °F 76% 30.33 in 10.0 mi NNW 10.4 mph - N/A   Clear
1:55 AM 37.6 °F 31.0 °F 31.1 °F 77% 30.34 in 10.0 mi NNW 9.2 mph - N/A   Clear
2:15 AM 36.7 °F 30.5 °F 30.9 °F 80% 30.34 in 10.0 mi NNW 8.1 mph - N/A   Clear
2:35 AM 36.5 °F 30.3 °F 30.7 °F 80% 30.33 in 10.0 mi NNW 8.1 mph - N/A   Clear
2:55 AM 35.8 °F 29.4 °F 30.6 °F 81% 30.33 in 10.0 mi NNW 8.1 mph - N/A   Clear
3:15 AM 35.6 °F 29.2 °F 30.2 °F 81% 30.33 in 10.0 mi NNW 8.1 mph - N/A   Clear
3:35 AM 34.7 °F 28.1 °F 30.2 °F 84% 30.32 in 10.0 mi NNW 8.1 mph - N/A   Clear
3:55 AM 34.3 °F 27.7 °F 30.0 °F 84% 30.31 in 10.0 mi NNW 8.1 mph - N/A   Clear
4:15 AM 34.2 °F 27.5 °F 30.0 °F 85% 30.31 in 10.0 mi NNW 8.1 mph - N/A   Clear
4:35 AM 34.0 °F 27.2 °F 29.8 °F 85% 30.32 in 10.0 mi NNW 8.1 mph - N/A   Clear
4:55 AM 34.0 °F 27.2 °F 29.8 °F 85% 30.32 in 10.0 mi NNW 8.1 mph - N/A   Clear
5:15 AM 34.0 °F 26.6 °F 29.7 °F 84% 30.33 in 10.0 mi NNW 9.2 mph - N/A   Clear
5:35 AM 33.8 °F 25.8 °F 29.5 °F 84% 30.32 in 10.0 mi North 10.4 mph - N/A   Clear
5:55 AM 33.8 °F 26.4 °F 30.2 °F 87% 30.33 in 10.0 mi NNW 9.2 mph - N/A   Clear
6:15 AM 33.6 °F 26.8 °F 29.3 °F 84% 30.33 in 10.0 mi North 8.1 mph - N/A   Clear
6:35 AM 32.9 °F 25.9 °F 29.3 °F 87% 30.32 in 10.0 mi NNW 8.1 mph - N/A   Clear
6:55 AM 32.4 °F 24.6 °F 29.3 °F 88% 30.32 in 10.0 mi NNW 9.2 mph - N/A   Clear
7:15 AM 32.4 °F 26.0 °F 29.1 °F 88% 30.32 in 10.0 mi NNW 6.9 mph - N/A   Clear
7:35 AM 32.0 °F 26.4 °F 28.4 °F 87% 30.33 in 10.0 mi North 5.8 mph - N/A   Clear
7:55 AM 32.4 °F 27.9 °F 29.3 °F 88% 30.33 in 10.0 mi NNW 4.6 mph - N/A   Clear
8:15 AM 33.8 °F 27.0 °F 30.0 °F 86% 30.34 in 10.0 mi NNW 8.1 mph - N/A   Clear
8:35 AM 35.4 °F 29.0 °F 30.4 °F 82% 30.35 in 10.0 mi NNW 8.1 mph - N/A   Clear
8:55 AM 37.4 °F 30.3 °F 30.2 °F 75% 30.36 in 10.0 mi North 10.4 mph 16.1 mph N/A   Clear
9:15 AM 38.3 °F 30.9 °F 31.1 °F 75% 30.36 in 10.0 mi North 11.5 mph - N/A   Clear
9:35 AM 39.7 °F 31.9 °F 31.6 °F 73% 30.36 in 10.0 mi North 13.8 mph - N/A   Clear
9:55 AM 40.5 °F 33.6 °F 31.6 °F 71% 30.36 in 10.0 mi North 11.5 mph - N/A   Clear
10:15 AM 41.9 °F 35.9 °F 31.6 °F 67% 30.35 in 10.0 mi NNE 10.4 mph - N/A   Clear
10:35 AM 43.0 °F 38.2 °F 31.6 °F 64% 30.35 in 10.0 mi North 8.1 mph - N/A   Clear
10:55 AM 44.2 °F 39.2 °F 31.6 °F 61% 30.35 in 10.0 mi North 9.2 mph - N/A   Clear
11:15 AM 45.3 °F 39.3 °F 31.8 °F 59% 30.35 in 10.0 mi North 12.7 mph - N/A   Clear
11:35 AM 45.9 °F 40.4 °F 31.8 °F 58% 30.35 in 10.0 mi North 11.5 mph - N/A   Clear
11:55 AM 46.6 °F - 32.2 °F 57% 30.34 in 10.0 mi North 10.4 mph - N/A   Clear
12:15 PM 47.1 °F - 31.5 °F 55% 30.33 in 10.0 mi North 9.2 mph - N/A   Clear
12:35 PM 48.0 °F - 32.0 °F 54% 30.31 in 10.0 mi North 8.1 mph 16.1 mph N/A   Clear
12:55 PM 47.8 °F - 31.6 °F 53% 30.30 in 10.0 mi North 11.5 mph - N/A   Clear
1:15 PM 47.7 °F - 31.3 °F 53% 30.29 in 10.0 mi NNW 9.2 mph - N/A   Clear
1:35 PM 47.5 °F - 30.6 °F 52% 30.29 in 10.0 mi North 10.4 mph - N/A   Clear
1:55 PM 48.2 °F - 31.8 °F 53% 30.28 in 10.0 mi North 11.5 mph 16.1 mph N/A   Clear
2:15 PM 47.7 °F - 30.9 °F 52% 30.27 in 10.0 mi North 6.9 mph - N/A   Clear
2:35 PM 48.9 °F - 30.7 °F 50% 30.27 in 10.0 mi NNW 12.7 mph 16.1 mph N/A   Clear
2:55 PM 48.7 °F - 30.7 °F 50% 30.27 in 10.0 mi NNW 8.1 mph - N/A   Clear
3:15 PM 48.6 °F - 30.9 °F 51% 30.26 in 10.0 mi North 10.4 mph 16.1 mph N/A   Clear
3:35 PM 48.2 °F - 30.6 °F 51% 30.26 in 10.0 mi NNW 10.4 mph - N/A   Clear
3:55 PM 48.2 °F - 31.3 °F 52% 30.26 in 10.0 mi NW 9.2 mph - N/A   Clear
4:15 PM 47.5 °F - 30.7 °F 52% 30.26 in 10.0 mi NW 10.4 mph - N/A   Clear
4:35 PM 48.4 °F - 31.1 °F 51% 30.26 in 10.0 mi NNW 9.2 mph - N/A   Clear
4:55 PM 47.5 °F - 30.9 °F 53% 30.26 in 10.0 mi North 9.2 mph - N/A   Clear
5:15 PM 46.4 °F 41.9 °F 32.0 °F 57% 30.26 in 10.0 mi North 9.2 mph - N/A   Clear
5:35 PM 46.6 °F - 31.3 °F 55% 30.26 in 10.0 mi North 5.8 mph - N/A   Clear
5:55 PM 45.5 °F 42.5 °F 32.0 °F 59% 30.26 in 10.0 mi NNE 5.8 mph - N/A   Clear
6:15 PM 44.8 °F 42.4 °F 31.8 °F 60% 30.27 in 10.0 mi North 4.6 mph - N/A   Clear
6:35 PM 43.5 °F 40.1 °F 31.6 °F 63% 30.27 in 10.0 mi North 5.8 mph - N/A   Clear
6:55 PM 42.1 °F 38.4 °F 31.1 °F 65% 30.26 in 10.0 mi NNE 5.8 mph - N/A   Clear
7:15 PM 41.7 °F 38.0 °F 30.7 °F 65% 30.26 in 10.0 mi NNE 5.8 mph - N/A   Clear
7:35 PM 41.2 °F 38.2 °F 30.4 °F 65% 30.26 in 10.0 mi NNE 4.6 mph - N/A   Clear
7:55 PM 40.1 °F 36.9 °F 30.2 °F 68% 30.26 in 10.0 mi North 4.6 mph - N/A   Clear
8:15 PM 38.3 °F 34.8 °F 29.8 °F 72% 30.26 in 10.0 mi North 4.6 mph - N/A   Clear
8:35 PM 37.9 °F 33.5 °F 30.2 °F 74% 30.27 in 10.0 mi NNW 5.8 mph - N/A   Clear
8:55 PM 37.2 °F 32.6 °F 30.0 °F 75% 30.27 in 10.0 mi North 5.8 mph - N/A   Clear
9:15 PM 36.9 °F 32.2 °F 29.3 °F 74% 30.27 in 10.0 mi NNW 5.8 mph - N/A   Clear
9:35 PM 35.6 °F 30.7 °F 30.2 °F 81% 30.28 in 10.0 mi North 5.8 mph - N/A   Clear
9:55 PM 35.8 °F 30.9 °F 29.5 °F 78% 30.28 in 10.0 mi NNW 5.8 mph - N/A   Clear
10:15 PM 36.3 °F 32.5 °F 29.8 °F 77% 30.28 in 10.0 mi NNW 4.6 mph - N/A   Clear
10:35 PM 35.6 °F 31.7 °F 29.8 °F 80% 30.28 in 10.0 mi NNW 4.6 mph - N/A   Clear
10:55 PM 35.8 °F 30.1 °F 29.8 °F 79% 30.28 in 10.0 mi NNW 6.9 mph - N/A   Clear
11:15 PM 35.1 °F 30.1 °F 29.8 °F 81% 30.29 in 10.0 mi NNW 5.8 mph - N/A   Clear
11:35 PM 35.6 °F 29.9 °F 30.2 °F 81% 30.29 in 10.0 mi North 6.9 mph - N/A   Clear
11:55 PM 35.4 °F 29.7 °F 30.0 °F 81% 30.29 in 10.0 mi NNW 6.9 mph - N/A   Clear